Regional Weather Roundup
Issued by NWS

Home | Current Version | Previous Version | Text Only | Print | Product List | Glossary Off
Versions: 1 2 3 4 5 6 7 8 9 10 11 12 13 14 15 16 17 18 19 20 21 22 23 24 25 26 27 28 29 30 31 32 33 34 35 36 37 38 39 40 41 42 43 44 45 46 47 48 49 50

000
ASUS43 KOAX 301102
RWRNE

WEATHER ROUNDUP FOR NEBRASKA
NATIONAL WEATHER SERVICE OMAHA NE
600 AM CDT MON MAY 30 2016

NOTES: SATELLITE DATA IS BEING USED TO AUGMENT CLOUD COVER ABOVE
       12000 FEET.
       "FAIR" INDICATES FEW OR NO CLOUDS BELOW 12,000 FEET WITH NO
       SIGNIFICANT WEATHER AND/OR OBSTRUCTIONS TO VISIBILITY.

  * THESE STATIONS DO NOT REPORT WEATHER SUCH AS RAIN...SNOW OR FOG.

NEZ001>004-019>022-054>056-301200-
NEBRASKA PANHANDLE

CITY           SKY/WX    TMP DP  RH WIND       PRES   REMARKS
SCOTTSBLUFF    CLOUDY    51  47  86 E8        29.98F
ALLIANCE       CLOUDY    53  49  86 S8        29.97F
CHADRON        CLOUDY    55  49  80 W5        29.93S
SIDNEY         CLOUDY    52  48  86 SW14      30.01F
$$

NEZ057>060-069>072-079>082-301200-
SOUTHWEST NEBRASKA

CITY           SKY/WX    TMP DP  RH WIND       PRES   REMARKS
NORTH PLATTE   PTCLDY    51  49  92 CALM      29.99S
IMPERIAL       PTCLDY    57  50  77 SW8       29.98F
LEXINGTON      CLOUDY    56  52  87 E6        29.99R
MCCOOK         CLOUDY    56  51  84 SE5       29.99R
$$

NEZ005>010-023>029-035>040-094-301200-
NORTH CENTRAL NEBRASKA

CITY           SKY/WX    TMP DP  RH WIND       PRES   REMARKS
VALENTINE      CLOUDY    57  51  80 SE10      29.97R
AINSWORTH      PTCLDY    53  51  92 CALM      29.99R
BROKEN BOW     PTCLDY    57  53  86 CALM      29.99R
ORD            CLOUDY    59  53  80 SE3       29.97R
$$

NEZ041-046>049-061>064-073>077-083>087-301200-
SOUTH CENTRAL NEBRASKA

CITY           SKY/WX    TMP DP  RH WIND       PRES   REMARKS
GRAND ISLAND   CLOUDY    61  54  77 SE8       30.01S
HASTINGS       CLOUDY    59  53  80 S6        30.02R
KEARNEY *      CLOUDY    59  52  77 S9        30.00S
YORK           MOCLDY    57  54  88 CALM      30.01R
$$

NEZ011>018-030>034-042>045-301200-
NORTHEAST NEBRASKA

CITY           SKY/WX    TMP DP  RH WIND       PRES   REMARKS
NORFOLK        PTCLDY    64  54  69 CALM      29.99S
BLAIR          CLEAR     66  59  79 CALM      30.00R
FREMONT        PTCLDY    59  58  95 CALM      30.01R
TEKAMAH          N/A    N/A N/A N/A MISG      29.98S
$$

NEZ050>053-065>068-078-088>093-301200-
SOUTHEAST NEBRASKA

CITY           SKY/WX    TMP DP  RH WIND       PRES   REMARKS
LINCOLN        CLEAR     61  57  87 S3        30.02R
OMAHA EPPLEY   PTCLDY    62  58  86 CALM      29.99R
FALLS CITY     CLEAR     65  62  90 S9        30.00R
PLATTSMOUTH    CLEAR     65  64  93 S7        30.01R
$$

NEZ044-045-051>053-067-301200-
OMAHA AREA

CITY           SKY/WX    TMP DP  RH WIND       PRES   REMARKS
OMAHA EPPLEY   PTCLDY    62  58  86 CALM      29.99R
BLAIR          CLEAR     66  59  79 CALM      30.00R
FREMONT        PTCLDY    59  58  95 CALM      30.01R
OFFUTT AFB     CLEAR     60  60 100 CALM      29.99R
PLATTSMOUTH    CLEAR     65  64  93 S7        30.01R
$$




USA.gov is the U.S. government's official web portal to all federal, state and local government web resources and services.